{"data":{"norad_id":37256,"epoch":"2026-09-19T20:08:12.109056Z","epoch_age_seconds":71465,"freshness":"FRESH","line1":"1 37256U 10068A   26262.83902904 -.00000153  00000+0  00000+0 0  9999","line2":"2 37256  47.3791 270.6455 0057416 216.8441 278.7596  1.00252131 57746","mean_motion":1.00252131,"eccentricity":0.0057416,"inclination_deg":47.3791,"raan_deg":270.6455,"arg_perigee_deg":216.8441,"mean_anomaly_deg":278.7596,"bstar":0,"rev_number":5774,"period_min":1436.3784446637,"perigee_km":35549.980926104,"apogee_km":36034.230255825,"semimajor_km":42170.242590964,"source":"CELESTRAK","updated_at":"2026-09-20T09:00:46.670895Z"}}